Terug naar catalogus

STARLINK-31357

ActiefCommunicatieVLEO
NORAD 59502·PAYLOAD·🇺🇸 United States

Gelanceerd Apr 13, 2024 vanaf Cape Canaveral Space Force Station

Loading…

Volgende Passages (komende 24 uur)

TLE

VersSource: CelesTrak SupGP

Epoch: Sep 14, 2026, 22:42 UTC

1 59502C 24071U   26257.94631944 -.00014981  00000+0 -54256-3 0  2573
2 59502  43.0043 351.2681 0001622 266.5220 174.8878 15.27587597    17

Volg STARLINK-31357 in realtime met AllMySat

Download on the App Store